Content
SEND FEEDBACK

Daily
Averages
Monthly
Summary
United States of America

TAMUNING, GUAM


Home > North America > United States > Guam
Elevation: 76 meters     Latitude: 13 29N     Longitude: 144 47E

WEATHER
 
SELECT A DAY
Number of Records: 354,649;   Date Range: 1/1/95 - 11/25/14
 
SHARE

PRINT THIS DATA

[ ← Previous Day ]
WEATHER ALMANAC - 1 MARCH, 2013
[ Next Day → ]
[ °F ]   °C
Weather ElementAverageHighLow
Temperature26.3 °C29 °C (12:07 pm)24.9 °C (11:55 pm)
Dewpoint23.2 °C24 °C (5:10 am)22.7 °C (11:55 pm)
Humidity82.8 %94 % (5:10 am)72 % (2:55 pm)
Barometer1010.8 hPa1012.2 hPa (9:22 am)1009.1 hPa (3:48 pm)
Wind Speed24.1 km/h29.6 km/h (12:54 pm)
Wind Gust37 km/h (1:26 pm)
Weather ElementAverage
Visibility16.1 km
Wind DirectionENE (64.4 °)

Weather ElementTotal
Precipitation---
Cooling Degree Days8.6 (Base 18.3)
Growing Degree Days16.9 (Base 10)
Averaged from 111 records on 1 March, 2013
WEATHER CONDITIONS BREAKOUT
WIND DIRECTION BREAKOUT
WEATHER BY HOUR - 1 MARCH, 2013
[ °F ]   °C
Local TimeTemperatureDewpointHumidityBarometerVisibilityWind DirectionWind SpeedGust SpeedPrecipitationEventsConditions
12:28 AM26 °C23 °C83 %1011.2 hPa16.1 kmENE (70°)24.1 km/hMostly Cloudy
12:29 AM26 °C23 °C83 %1011.2 hPa16.1 kmENE (70°)25.9 km/hMostly Cloudy
12:34 AM26 °C23 °C83 %1011.2 hPa16.1 kmENE (70°)22.2 km/hMostly Cloudy
12:42 AM26 °C23 °C83 %1011.2 hPa16.1 kmENE (70°)22.2 km/hMostly Cloudy
12:51 AM26 °C23 °C83 %1011.2 hPa16.1 kmENE (70°)22.2 km/hMostly Cloudy
12:55 AM25.5 °C23.3 °C88 %1011.2 hPa16.1 kmENE (70°)22.2 km/hMostly Cloudy
12:58 AM25 °C23 °C89 %1010.8 hPa16.1 kmENE (70°)22.2 km/hScattered Clouds
1:21 AM26 °C23 °C83 %1010.8 hPa16.1 kmENE (70°)24.1 km/hMostly Cloudy
1:27 AM26 °C23 °C83 %1010.8 hPa16.1 kmEast (80°)20.4 km/hMostly Cloudy
1:37 AM26 °C23 °C83 %1010.5 hPa16.1 kmEast (80°)24.1 km/hMostly Cloudy
1:38 AM26 °C23 °C83 %1010.5 hPa16.1 kmEast (80°)25.9 km/hMostly Cloudy
1:44 AM26 °C23 °C83 %1010.5 hPa16.1 kmEast (80°)27.8 km/hScattered Clouds
1:55 AM25.4 °C23.5 °C89 %1010.5 hPa16.1 kmEast (80°)25.9 km/hScattered Clouds
1:58 AM25 °C23 °C89 %1010.5 hPa16.1 kmENE (70°)24.1 km/hMostly Cloudy
2:06 AM25 °C23 °C89 %1010.2 hPa16.1 kmEast (80°)25.9 km/hScattered Clouds
2:22 AM25 °C23 °C89 %1010.2 hPa16.1 kmENE (70°)25.9 km/hMostly Cloudy
2:29 AM25 °C23 °C89 %1010.2 hPa16.1 kmEast (80°)24.1 km/hScattered Clouds
2:55 AM25.2 °C23 °C88 %1010.2 hPa16.1 kmEast (80°)25.9 km/hPartly Cloudy
3:55 AM25.3 °C23.4 °C89 %1010.2 hPa16.1 kmENE (60°)25.9 km/hScattered Clouds
4:45 AM25 °C23 °C89 %1009.8 hPa16.1 kmENE (70°)25.9 km/hMostly Cloudy
4:55 AM25.3 °C23.3 °C89 %1010.2 hPa16.1 kmENE (60°)20.4 km/hMostly Cloudy
5:10 AM25 °C24 °C94 %1010.2 hPa16.1 kmENE (60°)22.2 km/h35.2 km/hMostly Cloudy
5:13 AM25 °C23 °C89 %1010.2 hPa16.1 kmENE (60°)24.1 km/hScattered Clouds
5:24 AM25 °C23 °C89 %1010.2 hPa16.1 kmENE (60°)20.4 km/hMostly Cloudy
5:27 AM25 °C23 °C89 %1010.2 hPa16.1 kmENE (60°)25.9 km/hMostly Cloudy
5:33 AM25 °C23 °C89 %1010.2 hPa16.1 kmENE (70°)22.2 km/hMostly Cloudy
5:42 AM25 °C23 °C89 %1010.2 hPa16.1 kmENE (60°)24.1 km/hMostly Cloudy
5:54 AM25 °C23 °C89 %1010.2 hPa16.1 kmEast (80°)25.9 km/hMostly Cloudy
5:55 AM25.1 °C22.8 °C87 %1010.2 hPa16.1 kmEast (80°)27.8 km/hMostly Cloudy
5:56 AM25 °C23 °C89 %1010.5 hPa16.1 kmEast (80°)27.8 km/hScattered Clouds
6:43 AM25 °C23 °C89 %1010.5 hPa16.1 kmENE (70°)24.1 km/h33.3 km/hMostly Cloudy
6:46 AM25 °C23 °C89 %1010.5 hPa16.1 kmENE (70°)22.2 km/h33.3 km/hScattered Clouds
6:48 AM25 °C23 °C89 %1010.5 hPa16.1 kmENE (70°)20.4 km/h33.3 km/hMostly Cloudy
6:51 AM25 °C23 °C89 %1010.5 hPa16.1 kmENE (70°)22.2 km/hMostly Cloudy
6:54 AM25 °C23 °C89 %1010.5 hPa16.1 kmENE (70°)20.4 km/hScattered Clouds
6:55 AM25.1 °C22.8 °C87 %1010.5 hPa16.1 kmENE (70°)22.2 km/hScattered Clouds
7:55 AM26.1 °C23.3 °C84 %1011.2 hPa16.1 kmENE (60°)25.9 km/hScattered Clouds
8:55 AM27 °C22.8 °C78 %1011.9 hPa16.1 kmENE (60°)25.9 km/hPartly Cloudy
9:22 AM27 °C23 °C79 %1012.2 hPa16.1 kmENE (60°)27.8 km/hMostly Cloudy
9:26 AM27 °C23 °C79 %1012.2 hPa16.1 kmENE (70°)25.9 km/hScattered Clouds
9:55 AM27.4 °C23 °C77 %1012.2 hPa16.1 kmENE (60°)24.1 km/hScattered Clouds
10:05 AM28 °C23 °C74 %1012.2 hPa16.1 kmENE (70°)24.1 km/h35.2 km/hMostly Cloudy
10:08 AM28 °C23 °C74 %1012.2 hPa16.1 kmENE (60°)22.2 km/h35.2 km/hScattered Clouds
10:27 AM28 °C24 °C79 %1012.2 hPa16.1 kmNorthMostly Cloudy
10:29 AM28 °C24 °C79 %1011.9 hPa16.1 kmNorthMostly Cloudy
10:31 AM28 °C24 °C79 %1011.9 hPa16.1 kmNorthMostly Cloudy
10:32 AM28 °C23 °C74 %1011.9 hPa16.1 kmNorthScattered Clouds
10:54 AM27 °C23 °C79 %1011.9 hPa16.1 kmENE (70°)24.1 km/hMostly Cloudy
10:55 AM27.4 °C23.4 °C79 %1011.9 hPa16.1 kmENE (70°)25.9 km/hMostly Cloudy
10:58 AM28 °C23 °C74 %1011.9 hPa16.1 kmEast (80°)25.9 km/hScattered Clouds
11:55 AM28.6 °C23.4 °C73 %1011.2 hPa16.1 kmENE (70°)25.9 km/hScattered Clouds
12:07 PM29 °C24 °C74 %1011.2 hPa16.1 kmEast (80°)25.9 km/hMostly Cloudy
12:21 PM29 °C24 °C74 %1010.8 hPa16.1 kmEast (80°)27.8 km/hMostly Cloudy
12:54 PM28 °C24 °C79 %1010.5 hPa16.1 kmENE (70°)29.6 km/hMostly Cloudy
12:55 PM28.1 °C23.7 °C77 %1010.5 hPa16.1 kmENE (70°)27.8 km/hMostly Cloudy
12:58 PM28 °C24 °C79 %1010.5 hPa16.1 kmENE (70°)27.8 km/hMostly Cloudy
1:10 PM28 °C24 °C79 %1010.5 hPa16.1 kmENE (70°)27.8 km/hScattered Clouds
1:26 PM29 °C24 °C74 %1010.2 hPa16.1 kmENE (70°)25.9 km/h37 km/hMostly Cloudy
1:30 PM29 °C24 °C74 %1010.2 hPa16.1 kmEast (80°)29.6 km/hScattered Clouds
1:38 PM28 °C24 °C79 %1010.2 hPa16.1 kmEast (80°)25.9 km/hMostly Cloudy
1:48 PM28 °C23 °C74 %1010.2 hPa16.1 kmEast (80°)25.9 km/hScattered Clouds
1:55 PM28.6 °C23.5 °C74 %1010.2 hPa16.1 kmENE (70°)27.8 km/hScattered Clouds
2:01 PM29 °C24 °C74 %1010.2 hPa16.1 kmENE (70°)25.9 km/hMostly Cloudy
2:07 PM29 °C24 °C74 %1009.8 hPa16.1 kmEast (80°)25.9 km/hScattered Clouds
2:55 PM28.7 °C23.2 °C72 %1009.8 hPa16.1 kmENE (70°)25.9 km/hScattered Clouds
3:27 PM28 °C23 °C74 %1009.5 hPa16.1 kmENE (60°)25.9 km/hMostly Cloudy
3:48 PM28 °C23 °C74 %1009.1 hPa16.1 kmENE (60°)25.9 km/hMostly Cloudy
3:55 PM27.6 °C23.2 °C77 %1009.1 hPa16.1 kmENE (60°)25.9 km/hMostly Cloudy
3:56 PM28 °C23 °C74 %1009.1 hPa16.1 kmENE (60°)24.1 km/hMostly Cloudy
4:36 PM27 °C23 °C79 %1009.5 hPa16.1 kmENE (70°)22.2 km/hMostly Cloudy
4:42 PM27 °C23 °C79 %1009.5 hPa16.1 kmENE (60°)22.2 km/hMostly Cloudy
4:51 PM27 °C23 °C79 %1009.5 hPa16.1 kmENE (60°)22.2 km/hScattered Clouds
4:55 PM27.4 °C22.9 °C76 %1009.8 hPa16.1 kmENE (60°)20.4 km/hScattered Clouds
5:38 PM27 °C23 °C79 %1010.2 hPa16.1 kmENE (60°)24.1 km/hMostly Cloudy
5:39 PM27 °C23 °C79 %1010.2 hPa16.1 kmENE (60°)25.9 km/hScattered Clouds
5:40 PM27 °C23 °C79 %1010.2 hPa16.1 kmENE (60°)27.8 km/hMostly Cloudy
5:42 PM27 °C23 °C79 %1010.2 hPa16.1 kmENE (60°)24.1 km/hMostly Cloudy
5:45 PM27 °C23 °C79 %1010.2 hPa16.1 kmENE (60°)22.2 km/hMostly Cloudy
5:55 PM26.5 °C23.1 °C81 %1010.2 hPa16.1 kmENE (60°)25.9 km/hMostly Cloudy
6:00 PM27 °C23 °C79 %1010.2 hPa16.1 kmENE (60°)22.2 km/hMostly Cloudy
6:05 PM26 °C23 °C83 %1010.2 hPa16.1 kmENE (70°)20.4 km/hScattered Clouds
6:09 PM26 °C23 °C83 %1010.2 hPa16.1 kmENE (60°)24.1 km/hMostly Cloudy
6:12 PM26 °C23 °C83 %1010.2 hPa16.1 kmENE (60°)24.1 km/hScattered Clouds
6:25 PM26 °C23 °C83 %1010.2 hPa16.1 kmENE (70°)20.4 km/hMostly Cloudy
6:28 PM26 °C23 °C83 %1010.5 hPa16.1 kmENE (60°)20.4 km/hScattered Clouds
6:29 PM26 °C23 °C83 %1010.5 hPa16.1 kmENE (60°)18.5 km/hMostly Cloudy
6:41 PM26 °C23 °C83 %1010.5 hPa16.1 kmENE (60°)27.8 km/hMostly Cloudy
6:47 PM26 °C23 °C83 %1010.5 hPa16.1 kmENE (60°)27.8 km/hMostly Cloudy
6:53 PM26 °C23 °C83 %1010.5 hPa16.1 kmENE (70°)25.9 km/hMostly Cloudy
6:55 PM25.9 °C23 °C84 %1010.5 hPa16.1 kmENE (60°)24.1 km/hMostly Cloudy
7:02 PM26 °C23 °C83 %1010.8 hPa16.1 kmENE (60°)29.6 km/hOvercast
7:25 PM25 °C23 °C89 %1011.2 hPa16.1 kmENE (60°)24.1 km/hMostly Cloudy
7:33 PM26 °C23 °C83 %1011.2 hPa16.1 kmENE (60°)20.4 km/hMostly Cloudy
7:51 PM26 °C23 °C83 %1011.2 hPa16.1 kmENE (70°)20.4 km/hScattered Clouds
7:55 PM25.6 °C22.9 °C85 %1011.2 hPa16.1 kmENE (60°)22.2 km/hScattered Clouds
8:55 PM25.2 °C22.8 °C86 %1011.5 hPa16.1 kmENE (60°)20.4 km/hPartly Cloudy
9:23 PM25 °C23 °C89 %1011.5 hPa16.1 kmENE (60°)24.1 km/hMostly Cloudy
9:27 PM25 °C23 °C89 %1011.5 hPa16.1 kmENE (60°)22.2 km/hScattered Clouds
9:55 PM25.3 °C23.1 °C88 %1011.5 hPa16.1 kmENE (70°)18.5 km/hPartly Cloudy
10:55 PM25.5 °C23.1 °C86 %1011.5 hPa16.1 kmENE (60°)18.5 km/hMostly Cloudy
11:00 PM25 °C23 °C89 %1011.5 hPa16.1 kmENE (60°)20.4 km/hMostly Cloudy
11:02 PM25 °C23 °C89 %1011.5 hPa16.1 kmENE (60°)22.2 km/hMostly Cloudy
11:08 PM26 °C23 °C83 %1011.5 hPa16.1 kmENE (60°)20.4 km/hMostly Cloudy
11:12 PM26 °C23 °C83 %1011.5 hPa16.1 kmENE (60°)24.1 km/hScattered Clouds
11:14 PM25 °C23 °C89 %1011.5 hPa14.5 kmENE (60°)22.2 km/hRainLight Rain
11:15 PM25 °C23 °C89 %1011.5 hPa14.5 kmENE (60°)24.1 km/hRainLight Rain
11:24 PM25 °C23 °C89 %1011.9 hPa16.1 kmENE (60°)22.2 km/hMostly Cloudy
11:31 PM25 °C23 °C89 %1011.5 hPa16.1 kmENE (60°)22.2 km/hRainLight Rain
11:46 PM25 °C23 °C89 %1011.5 hPa16.1 kmENE (60°)22.2 km/hRainLight Rain
11:48 PM25 °C23 °C89 %1011.5 hPa16.1 kmENE (60°)24.1 km/hMostly Cloudy
11:55 PM24.9 °C22.7 °C88 %1011.5 hPa16.1 kmENE (60°)25.9 km/h0 mmScattered Clouds
Hourly data recorded from PGUA, located 0 kilometers away from Tamuning, Guam







STORIES FROM OUR PARTNERS